DW5572 Weather Reports


time (UTC)temp
C
wind
direction
speed
KPH
gust
KPH
rain 1hr
cm
rain 24hr
cm
rain mn
cm
humidity
%
barometer
mb
20260905215402 20 48 9.7 19.3 0.00 0.03 0.03 75 1012.0
20260905214902 20 10 11.3 22.5 0.00 0.03 0.03 74 1012.0
20260905214402 20 14 12.9 24.1 0.00 0.03 0.03 74 1011.9
20260905213903 20 30 12.9 24.1 0.00 0.03 0.03 73 1011.9
20260905213403 20 66 14.5 24.1 0.00 0.03 0.03 73 1011.9
20260905212903 20 9 14.5 24.1 0.00 0.03 0.03 73 1011.9
20260905212848 21 5 14.5 25.7 0.00 0.03 0.03 75 1011.9
20260905212121 21 26 14.5 25.7 0.00 0.03 0.03 75 1011.9
20260905211359 21 22 12.9 24.1 0.00 0.03 0.03 74 1011.7
20260905210859 21 28 12.9 19.3 0.00 0.03 0.03 74 1011.8
20260905210849 21 20 12.9 22.5 0.00 0.03 0.03 75 1011.7
20260905210115 21 24 14.5 25.7 0.00 0.03 0.03 75 1011.6
20260905205359 21 30 16.1 29.0 0.00 0.03 0.03 74 1011.5
20260905204859 21 5 17.7 29.0 0.00 0.03 0.03 74 1011.5
20260905204359 21 31 16.1 25.7 0.00 0.03 0.03 72 1011.5
20260905203858 21 24 14.5 29.0 0.00 0.03 0.03 72 1011.5
20260905203358 21 9 14.5 25.7 0.00 0.03 0.03 72 1011.5
20260905202854 21 348 12.9 22.5 0.00 0.03 0.03 72 1011.4
20260905202354 22 36 12.9 27.4 0.00 0.03 0.03 72 1011.4
20260905202112 22 24 14.5 27.4 0.00 0.03 0.03 71 1011.4
20260905201354 22 24 16.1 29.0 0.00 0.03 0.03 71 1011.4
20260905201344 22 38 12.9 29.0 0.00 0.03 0.03 70 1011.4
20260905200355 22 227 12.9 24.1 0.00 0.03 0.03 69 1011.3
20260905200115 23 19 14.5 25.7 0.00 0.03 0.03 67 1011.3
20260905195355 23 24 14.5 25.7 0.00 0.03 0.03 66 1011.4
20260905194855 23 25 14.5 30.6 0.00 0.03 0.03 67 1011.3
20260905194350 23 9 14.5 30.6 0.00 0.03 0.03 66 1011.3
20260905193851 23 48 14.5 27.4 0.00 0.03 0.03 68 1011.3
20260905193351 23 40 16.1 30.6 0.00 0.03 0.03 66 1011.4
20260905192850 23 19 16.1 30.6 0.00 0.03 0.03 66 1011.4
20260905192350 23 41 17.7 33.8 0.00 0.03 0.03 67 1011.3
20260905191850 23 43 16.1 33.8 0.00 0.03 0.03 66 1011.3
20260905191619 23 34 17.7 30.6 0.00 0.03 0.03 70 1011.3
20260905190850 23 36 17.7 30.6 0.00 0.03 0.03 67 1011.4
20260905190350 23 9 14.5 25.7 0.00 0.03 0.03 68 1011.3
20260905185846 23 351 14.5 25.7 0.00 0.03 0.03 69 1011.3
20260905185346 22 34 12.9 25.7 0.00 0.03 0.03 71 1011.4
20260905185112 21 57 12.9 24.1 0.00 0.03 0.03 74 1011.4
20260905184347 21 42 16.1 27.4 0.00 0.03 0.03 73 1011.5
20260905183847 22 22 17.7 30.6 0.00 0.03 0.03 71 1011.4
20260905183347 22 11 17.7 30.6 0.00 0.03 0.03 72 1011.4
20260905182847 23 40 17.7 30.6 0.00 0.03 0.03 72 1011.3
20260905182609 22 24 17.7 30.6 0.00 0.03 0.03 70 1011.2
20260905181846 23 46 16.1 27.4 0.00 0.03 0.03 73 1011.3
20260905181603 22 46 16.1 25.7 0.00 0.03 0.03 74 1011.3
20260905180842 22 19 16.1 29.0 0.00 0.03 0.03 72 1011.3
20260905180607 23 17 14.5 29.0 0.00 0.03 0.03 71 1011.2
20260905180108 23 19 12.9 22.5 0.00 0.03 0.03 73 1011.3
20260905175342 22 42 12.9 22.5 0.00 0.03 0.03 75 1011.3
20260905174842 22 9 12.9 22.5 0.00 0.03 0.03 75 1011.3
20260905174343 22 23 14.5 24.1 0.00 0.03 0.03 72 1011.4
20260905173843 23 344 14.5 24.1 0.00 0.03 0.03 73 1011.4
20260905173605 23 122 12.9 27.4 0.00 0.03 0.03 75 1011.4
20260905172839 22 24 12.9 27.4 0.00 0.03 0.03 75 1011.4
20260905172338 22 11 12.9 24.1 0.00 0.03 0.03 76 1011.3
20260905171838 22 9 12.9 20.9 0.00 0.03 0.03 75 1011.3
20260905171338 22 351 12.9 27.4 0.00 0.03 0.03 76 1011.4
20260905170838 22 11 14.5 27.4 0.00 0.03 0.03 77 1011.4
20260905170339 21 44 12.9 22.5 0.00 0.03 0.03 77 1011.4
20260905165838 21 355 12.9 24.1 0.00 0.03 0.03 77 1011.4
20260905165339 21 40 14.5 30.6 0.00 0.03 0.03 77 1011.5
20260905164839 21 26 14.5 30.6 0.00 0.03 0.03 78 1011.5
20260905164337 21 19 12.9 27.4 0.00 0.03 0.03 79 1011.5
20260905163837 21 32 11.3 25.7 0.00 0.03 0.03 78 1011.5
20260905163558 21 53 11.3 22.5 0.00 0.03 0.03 80 1011.5
20260905162837 21 28 11.3 22.5 0.00 0.03 0.03 79 1011.6
20260905162336 21 30 12.9 22.5 0.00 0.03 0.03 78 1011.7
20260905161838 22 39 12.9 22.5 0.00 0.03 0.03 78 1011.7
20260905161338 22 324 12.9 22.5 0.00 0.03 0.03 77 1011.7
20260905160838 22 25 12.9 24.1 0.00 0.03 0.03 79 1011.7
20260905160557 21 32 11.3 24.1 0.00 0.03 0.03 80 1011.8
20260905155837 21 37 11.3 22.5 0.00 0.03 0.03 81 1011.8
20260905155336 20 302 12.9 25.7 0.00 0.03 0.03 82 1011.8
20260905154836 20 23 14.5 25.7 0.00 0.03 0.03 82 1011.9
20260905154558 20 36 11.3 25.7 0.00 0.03 0.03 83 1012.0
20260905153837 20 5 9.7 22.5 0.00 0.03 0.03 83 1012.0
20260905153337 20 30 11.3 19.3 0.00 0.03 0.03 85 1012.0
20260905153107 19 349 11.3 24.1 0.00 0.03 0.03 85 1012.0
20260905152337 19 42 11.3 24.1 0.00 0.03 0.03 86 1012.1
20260905151837 18 27 9.7 20.9 0.00 0.03 0.03 87 1012.1
20260905151335 18 30 9.7 17.7 0.00 0.03 0.03 88 1012.2
20260905151035 18 34 9.7 19.3 0.00 0.03 0.03 88 1012.1
20260905150918 18 17 9.7 19.3 0.00 0.03 0.03 88 1012.2
20260905150104 18 11 8.0 20.9 0.00 0.03 0.03 89 1012.1
20260905145334 18 17 9.7 20.9 0.00 0.03 0.03 89 1012.0
20260905144834 18 11 11.3 20.9 0.00 0.03 0.03 89 1011.8
20260905144334 18 22 11.3 20.9 0.00 0.03 0.03 90 1011.8
20260905143834 18 20 8.0 19.3 0.00 0.03 0.03 90 1011.9
20260905143334 19 300 6.4 17.7 0.00 0.03 0.03 92 1011.8
20260905142834 18 25 6.4 17.7 0.00 0.03 0.03 92 1011.8
20260905142335 18 198 6.4 12.9 0.00 0.03 0.03 92 1011.8
20260905141839 18 37 4.8 9.7 0.00 0.03 0.03 93 1011.9
20260905141816 18 10 4.8 8.0 0.03 0.03 0.03 93 1011.9
20260905140836 17 5 4.8 8.0 0.03 0.03 0.03 93 1012.1
20260905140336 17 22 4.8 11.3 0.03 0.03 0.03 93 1012.0
20260905135831 17 45 3.2 11.3 0.03 0.03 0.03 93 1012.0
20260905135324 17 305 1.6 4.8 0.03 0.03 0.03 93 1012.0
20260905134824 17 20 0.0 0.0 0.03 0.03 0.03 93 1012.0
20260905134325 17 169 0.0 0.0 0.03 0.03 0.03 93 1012.0
20260905133823 17 9 0.0 0.0 0.03 0.03 0.03 93 1011.9
20260905133321 16 9 0.0 0.0 0.03 0.03 0.03 93 1011.9
20260905132821 16 17 0.0 0.0 0.03 0.03 0.03 93 1011.8
20260905132321 16 23 0.0 0.0 0.03 0.03 0.03 93 1011.9
20260905132040 16 24 0.0 0.0 0.03 0.03 0.03 93 1011.8
20260905131317 16 24 0.0 3.2 0.00 0.00 0.00 93 1011.8
20260905130815 16 22 0.0 3.2 0.00 0.00 0.00 94 1011.7
20260905130315 16 32 0.0 3.2 0.00 0.00 0.00 94 1011.6
20260905130037 16 351 0.0 3.2 0.00 0.00 0.00 94 1011.7
20260905125313 16 350 0.0 1.6 0.00 0.00 0.00 94 1011.7
20260905124813 16 349 0.0 1.6 0.00 0.00 0.00 94 1011.6
20260905124313 16 351 0.0 1.6 0.00 0.00 0.00 94 1011.6
20260905123811 16 351 0.0 1.6 0.00 0.00 0.00 94 1011.6
20260905123526 16 351 0.0 3.2 0.00 0.00 0.00 94 1011.5
20260905123033 16 351 0.0 3.2 0.00 0.00 0.00 94 1011.4
20260905122307 16 340 0.0 1.6 0.00 0.00 0.00 94 1011.4
20260905121800 16 340 0.0 0.0 0.00 0.00 0.00 94 1011.4
20260905121254 15 340 0.0 0.0 0.00 0.00 0.00 94 1011.3
20260905120749 15 342 0.0 0.0 0.00 0.00 0.00 94 1011.3
20260905120506 15 341 0.0 0.0 0.00 0.00 0.00 94 1011.3
20260905115737 15 341 0.0 0.0 0.00 0.00 0.00 94 1011.3
20260905115230 15 341 0.0 0.0 0.00 0.00 0.00 94 1011.2
20260905114725 15 342 0.0 0.0 0.00 0.00 0.00 94 1011.2
20260905114219 14 342 0.0 0.0 0.00 0.00 0.00 94 1011.1
20260905113712 14 342 0.0 0.0 0.00 0.00 0.00 94 1011.1
20260905113206 14 341 0.0 0.0 0.00 0.00 0.00 93 1011.1
20260905112701 14 26 0.0 0.0 0.00 0.00 0.00 93 1011.0
20260905112155 13 26 0.0 0.0 0.00 0.00 0.00 93 1011.0
20260905111648 13 26 0.0 0.0 0.00 0.00 0.00 93 1011.0
20260905111143 13 26 0.0 0.0 0.00 0.00 0.00 93 1010.9
20260905110636 13 26 0.0 0.0 0.00 0.00 0.00 93 1010.9
20260905110130 13 26 0.0 0.0 0.00 0.00 0.00 93 1010.8
20260905105625 13 26 0.0 0.0 0.00 0.00 0.00 93 1010.6
20260905105341 13 26 0.0 0.0 0.00 0.00 0.00 93 1010.6
20260905104612 13 26 0.0 0.0 0.00 0.00 0.00 93 1010.5
20260905104106 13 26 0.0 0.0 0.00 0.00 0.00 93 1010.5
20260905103601 13 26 0.0 0.0 0.00 0.00 0.00 93 1010.5
20260905103054 13 26 0.0 0.0 0.00 0.00 0.00 93 1010.4
20260905102553 13 26 0.0 0.0 0.00 0.00 0.00 93 1010.5
20260905102053 13 26 0.0 0.0 0.00 0.00 0.00 93 1010.5
20260905101551 13 26 0.0 0.0 0.00 0.00 0.00 93 1010.4
20260905101049 13 26 0.0 0.0 0.00 0.00 0.00 93 1010.5
20260905100549 13 26 0.0 0.0 0.00 0.00 0.00 93 1010.5
20260905100049 13 26 0.0 0.0 0.00 0.00 0.00 93 1010.4
20260905095549 13 26 0.0 0.0 0.00 0.00 0.00 93 1010.4
20260905095053 13 26 0.0 0.0 0.00 0.00 0.00 93 1010.4
20260905094547 13 26 0.0 0.0 0.00 0.00 0.00 93 1010.4
20260905094045 13 26 0.0 0.0 0.00 0.00 0.00 93 1010.3
20260905093543 13 26 0.0 0.0 0.00 0.00 0.00 93 1010.3
20260905093041 13 26 0.0 1.6 0.00 0.00 0.00 93 1010.3
20260905092541 13 26 0.0 3.2 0.00 0.00 0.00 93 1010.3
20260905092039 13 26 1.6 4.8 0.00 0.00 0.00 93 1010.3
20260905092021 13 26 1.6 4.8 0.00 0.00 0.00 92 1010.2
20260905091032 13 17 0.0 0.0 0.00 0.00 0.00 93 1010.0
20260905090527 13 17 0.0 0.0 0.00 0.00 0.00 93 1010.0
20260905090021 13 17 0.0 0.0 0.00 0.00 0.00 93 1010.0
20260905085515 13 17 0.0 0.0 0.00 0.00 0.00 92 1010.0
20260905085232 13 17 0.0 0.0 0.00 0.00 0.00 92 1010.0
20260905084502 13 17 0.0 0.0 0.00 0.00 0.00 92 1010.0
20260905083957 13 17 0.0 0.0 0.00 0.00 0.00 92 1010.0
20260905083450 13 17 0.0 1.6 0.00 0.00 0.00 92 1010.0
20260905082944 13 17 0.0 3.2 0.00 0.00 0.00 92 1010.0
20260905082439 13 17 0.0 3.2 0.00 0.00 0.00 92 1010.0
20260905081933 13 17 0.0 1.6 0.00 0.00 0.00 92 1009.9
20260905081426 13 17 1.6 3.2 0.00 0.00 0.00 92 1009.9
20260905080921 13 17 1.6 3.2 0.00 0.00 0.00 91 1010.0
20260905080414 14 17 0.0 1.6 0.00 0.00 0.00 91 1010.0
20260905075908 14 16 0.0 0.0 0.00 0.00 0.00 92 1010.0
20260905075403 14 16 0.0 0.0 0.00 0.00 0.00 92 1010.0
20260905075119 14 16 0.0 0.0 0.00 0.00 0.00 92 1010.0
20260905074351 14 16 0.0 0.0 0.00 0.00 0.00 92 1009.9
20260905073845 14 16 0.0 0.0 0.00 0.00 0.00 92 1009.9
20260905073557 14 16 0.0 0.0 0.00 0.00 0.00 92 1009.9
20260905072832 15 16 0.0 0.0 0.00 0.00 0.00 91 1009.9
20260905072326 15 16 0.0 0.0 0.00 0.00 0.00 92 1009.9
20260905071820 15 16 0.0 0.0 0.00 0.00 0.00 92 1009.9
20260905071315 15 16 0.0 0.0 0.00 0.00 0.00 92 1010.0
20260905070809 15 16 0.0 0.0 0.00 0.00 0.00 92 1010.2
20260905070302 14 16 0.0 0.0 0.00 0.00 0.00 91 1010.2
20260905065757 14 16 0.0 0.0 0.00 0.00 0.00 92 1010.2
20260905065514 14 27 0.0 0.0 0.00 0.00 0.00 91 1010.3
20260905064745 15 27 0.0 0.0 0.00 0.00 0.00 91 1010.3
20260905064238 14 27 0.0 0.0 0.00 0.00 0.00 91 1010.4
20260905063733 14 27 0.0 0.0 0.00 0.00 0.00 91 1010.4
20260905063454 14 27 0.0 0.0 0.00 0.00 0.00 91 1010.4
20260905062945 15 27 0.0 0.0 0.00 0.00 0.00 91 1010.3
20260905062215 15 27 0.0 0.0 0.00 0.00 0.00 91 1010.3
20260905061708 15 27 0.0 1.6 0.00 0.00 0.00 91 1010.3
20260905061205 15 27 0.0 1.6 0.00 0.00 0.00 91 1010.4
20260905060917 15 27 1.6 3.2 0.00 0.00 0.00 91 1010.3
20260905060151 15 28 1.6 3.2 0.00 0.00 0.00 90 1010.3
20260905055645 15 28 1.6 3.2 0.00 0.00 0.00 90 1010.3
20260905055139 15 28 0.0 1.6 0.00 0.00 0.00 90 1010.4
20260905054633 15 28 0.0 0.0 0.00 0.00 0.00 90 1010.4
20260905054127 16 28 0.0 0.0 0.00 0.00 0.00 90 1010.4
20260905053627 16 28 0.0 0.0 0.00 0.00 0.00 90 1010.3
20260905053125 16 28 0.0 0.0 0.00 0.00 0.00 89 1010.3
20260905052622 16 27 0.0 0.0 0.00 0.00 0.00 89 1010.3
20260905052120 16 27 0.0 0.0 0.00 0.00 0.00 89 1010.3
20260905051620 16 27 0.0 0.0 0.00 0.00 0.00 89 1010.3
20260905051119 16 27 0.0 0.0 0.00 0.00 0.00 89 1010.3
20260905050616 16 27 0.0 0.0 0.00 0.00 0.00 89 1010.3
20260905050116 16 27 0.0 0.0 0.00 0.00 0.00 89 1010.3
20260905045616 16 27 0.0 0.0 0.00 0.00 0.00 89 1010.3
20260905045114 16 27 0.0 3.2 0.00 0.00 0.00 89 1010.4
20260905044613 16 27 1.6 4.8 0.00 0.00 0.00 89 1010.4
20260905044111 16 26 1.6 4.8 0.00 0.00 0.00 88 1010.4
20260905043837 16 24 1.6 3.2 0.00 0.00 0.00 87 1010.4
20260905043111 17 24 1.6 3.2 0.00 0.00 0.00 86 1010.5
20260905042831 17 351 0.0 0.0 0.00 0.00 0.00 86 1010.5
20260905042106 17 351 0.0 0.0 0.00 0.00 0.00 86 1010.5
20260905041604 17 351 0.0 0.0 0.00 0.00 0.00 86 1010.4
20260905041103 17 350 0.0 0.0 0.00 0.00 0.00 86 1010.5
20260905040601 17 350 0.0 0.0 0.00 0.00 0.00 86 1010.5
20260905040059 17 350 0.0 0.0 0.00 0.00 0.00 85 1010.6
20260905035602 17 350 0.0 0.0 0.00 0.00 0.00 85 1010.6
20260905035317 17 350 0.0 0.0 0.00 0.00 0.00 85 1010.6
20260905034550 18 350 0.0 0.0 0.00 0.00 0.00 85 1010.6
20260905034046 18 350 0.0 0.0 0.00 0.00 0.00 85 1010.6
20260905033539 18 350 0.0 1.6 0.00 0.00 0.00 85 1010.7
20260905033252 18 350 0.0 1.6 0.00 0.00 0.00 84 1010.6
20260905032527 18 349 0.0 1.6 0.00 0.00 0.00 84 1010.6
20260905032021 18 38 0.0 0.0 0.00 0.00 0.00 84 1010.6
20260905031514 18 38 0.0 0.0 0.00 0.00 0.00 83 1010.5
20260905031009 18 38 0.0 0.0 0.00 0.00 0.00 83 1010.4
20260905030503 18 38 0.0 0.0 0.00 0.00 0.00 83 1010.3
20260905030217 18 38 0.0 0.0 0.00 0.00 0.00 83 1010.5
20260905025450 18 38 0.0 0.0 0.00 0.00 0.00 83 1010.6
20260905025425 18 38 0.0 0.0 0.00 0.00 0.00 83 1010.6
20260905024438 19 38 0.0 0.0 0.00 0.00 0.00 82 1010.6
20260905023933 19 38 0.0 0.0 0.00 0.00 0.00 82 1010.6
20260905023652 19 38 0.0 0.0 0.00 0.00 0.00 82 1010.7
20260905022921 19 38 0.0 0.0 0.00 0.00 0.00 82 1010.8
20260905022414 19 38 0.0 0.0 0.00 0.00 0.00 82 1010.6
20260905022137 19 38 0.0 0.0 0.00 0.00 0.00 82 1010.6
20260905021621 19 37 0.0 0.0 0.00 0.00 0.00 82 1010.8
20260905020857 19 37 0.0 0.0 0.00 0.00 0.00 82 1010.8
20260905020350 19 37 0.0 0.0 0.00 0.00 0.00 82 1010.8
20260905015844 19 38 0.0 0.0 0.00 0.00 0.00 82 1010.8
20260905015824 19 38 0.0 1.6 0.00 0.00 0.00 82 1010.9
20260905014832 20 38 0.0 1.6 0.00 0.00 0.00 81 1010.8
20260905014326 20 38 0.0 1.6 0.00 0.00 0.00 81 1010.8
20260905013820 20 38 0.0 0.0 0.00 0.00 0.00 81 1010.8
20260905013315 20 38 0.0 0.0 0.00 0.00 0.00 80 1010.8
20260905012809 20 38 0.0 0.0 0.00 0.00 0.00 80 1010.8
20260905012305 20 38 0.0 0.0 0.00 0.00 0.00 80 1010.9
20260905011756 20 38 0.0 1.6 0.00 0.00 0.00 80 1010.9
20260905011251 20 38 0.0 1.6 0.00 0.00 0.00 80 1010.9
20260905010745 20 38 0.0 1.6 0.00 0.00 0.00 80 1010.9
20260905010238 20 38 0.0 1.6 0.00 0.00 0.00 80 1010.9
20260905005732 20 38 0.0 1.6 0.00 0.00 0.00 80 1010.8
20260905005449 20 48 0.0 0.0 0.00 0.00 0.00 80 1010.7
20260905004720 20 48 0.0 0.0 0.00 0.00 0.00 80 1010.8
20260905004438 20 48 0.0 0.0 0.00 0.00 0.00 80 1010.7
20260905003927 20 48 0.0 0.0 0.00 0.00 0.00 80 1010.7
20260905003203 20 48 0.0 0.0 0.00 0.00 0.00 79 1010.7
20260905003146 21 48 0.0 0.0 0.00 0.00 0.00 79 1010.7
20260905002156 21 48 0.0 1.6 0.00 0.00 0.00 79 1010.7
20260905001655 21 48 0.0 1.6 0.00 0.00 0.00 78 1010.6
20260905001153 21 48 1.6 4.8 0.00 0.00 0.00 78 1010.5
20260905000653 21 48 3.2 9.7 0.00 0.00 0.00 78 1010.5
20260905000153 21 32 4.8 9.7 0.00 0.00 0.00 78 1010.4
20260904235653 21 14 4.8 12.9 0.00 0.00 0.00 78 1010.4
20260904235152 21 20 4.8 12.9 0.00 0.00 0.00 78 1010.3
20260904234647 21 17 3.2 6.4 0.00 0.00 0.00 79 1010.2
20260904234141 21 29 3.2 6.4 0.00 0.00 0.00 79 1010.2
20260904234121 21 44 1.6 6.4 0.00 0.00 0.00 79 1010.0
20260904233129 21 55 0.0 1.6 0.00 0.00 0.00 79 1009.8
20260904232622 21 9 0.0 0.0 0.00 0.00 0.00 79 1009.9
20260904232116 21 9 0.0 0.0 0.00 0.00 0.00 79 1009.8
20260904231610 21 9 0.0 0.0 0.00 0.00 0.00 79 1009.8
20260904231105 21 9 0.0 0.0 0.00 0.00 0.00 78 1009.8
20260904230559 21 9 0.0 0.0 0.00 0.00 0.00 78 1009.7
20260904230052 21 9 0.0 0.0 0.00 0.00 0.00 78 1009.8
20260904225547 21 9 0.0 0.0 0.00 0.00 0.00 78 1009.8
20260904225259 21 9 0.0 0.0 0.00 0.00 0.00 78 1009.9
20260904224752 22 9 0.0 3.2 0.00 0.00 0.00 78 1009.8
20260904224029 22 9 0.0 3.2 0.00 0.00 0.00 78 1009.8
20260904223523 22 9 0.0 3.2 0.00 0.00 0.00 78 1009.9
20260904223017 22 9 0.0 0.0 0.00 0.00 0.00 77 1009.8
20260904222511 22 9 0.0 0.0 0.00 0.00 0.00 76 1009.8
20260904222225 23 9 0.0 1.6 0.00 0.00 0.00 76 1009.7
20260904221459 23 9 0.0 1.6 0.00 0.00 0.00 75 1009.7
20260904220952 23 9 0.0 1.6 0.00 0.00 0.00 75 1009.7
20260904220446 23 9 1.6 3.2 0.00 0.00 0.00 75 1009.7